Wind_Speed
5 6 6 6 7 7 7 7 7 7 7 7 7 7 7 7 7 7 8 8 9 9 9 9 8 8 8 9 11 12 12 12 12 12 12 11 11 11 11 11 11 11 10 10 13 13 11 11 11 8 6 3 2 2 2 3 5 6 11 13 9 8 7 14 17 25 28 25 24 24 25 22 22 24 20 15 10 7 13 15 19 19 13 14 18 18 19 18
6 6 7 7 7 8 8 7 7 7 7 7 7 7 8 7 7 6 7 7 8 9 9 9 8 8 8 7 8 9 11 11 11 12 12 12 11 11 12 12 11 11 8 8 11 11 10 12 11 9 7 5 4 3 1 3 5 6 11 13 11 9 7 15 17 25 26 23 22 23 25 23 24 24 21 18 14 13 17 18 20 18 15 18 21 20 18 16
6 6 7 7 7 7 8 8 7 7 7 7 7 7 7 7 7 7 7 6 7 7 7 8 8 8 8 7 7 7 8 9 10 12 12 12 11 11 12 12 12 11 9 9 12 13 14 15 13 12 9 7 7 4 2 2 4 7 10 13 12 7 4 11 17 25 25 21 20 22 24 24 25 24 22 19 15 16 17 18 21 18 16 20 22 20 18 16
6 6 7 7 7 7 7 7 7 7 7 6 6 6 7 7 7 7 7 7 6 6 6 6 6 7 7 7 6 5 5 6 8 10 11 11 11 11 12 12 12 12 11 10 13 17 19 18 16 14 11 9 8 6 3 3 5 7 9 12 11 4 4 11 14 19 21 21 19 21 25 25 25 24 22 19 16 16 15 13 15 14 15 20 20 19 18 16
7 7 8 8 8 8 7 7 7 7 7 7 7 7 7 7 7 7 7 7 6 6 6 5 5 5 6 6 5 4 4 5 6 8 10 10 11 12 12 12 13 13 11 10 14 18 20 19 17 15 12 9 7 6 4 4 6 8 8 11 9 1 6 10 9 9 17 22 19 19 25 26 25 24 23 19 12 10 11 9 8 9 11 16 17 17 17 15
8 8 9 9 9 9 8 8 8 8 8 8 8 8 7 7 7 7 7 7 7 7 6 6 5 4 5 5 5 4 3 4 4 6 8 10 12 12 13 13 13 14 12 11 13 17 18 17 16 14 11 7 6 6 5 6 6 8 7 9 7 2 11 12 7 9 17 21 19 18 23 27 24 23 24 18 10 7 8 5 6 8 8 12 14 14 15 14
8 9 9 9 10 9 9 9 8 9 9 9 9 9 9 9 9 8 8 7 7 7 6 6 5 5 4 4 5 4 3 5 6 6 7 9 12 13 14 14 14 14 12 11 12 13 16 16 15 13 11 8 7 6 4 4 5 7 6 8 6 4 14 15 10 14 19 19 20 20 23 26 24 24 24 18 12 10 9 6 6 8 8 13 14 13 14 13
9 9 9 9 10 10 9 9 9 9 10 10 11 11 11 11 10 10 9 9 8 7 7 6 6 5 5 5 5 5 5 6 7 8 8 9 11 14 14 15 15 14 12 11 10 12 15 16 15 13 12 8 6 4 3 2 4 5 6 7 4 4 12 16 12 13 18 19 22 23 24 25 24 25 25 19 15 12 10 7 7 8 11 14 14 14 14 14
9 9 9 9 9 9 9 9 9 9 10 11 12 12 12 12 12 11 10 9 8 8 7 6 6 6 5 5 5 6 6 7 7 8 9 10 10 12 14 15 15 15 14 13 12 13 15 17 15 12 11 7 4 3 2 2 3 3 6 7 5 6 10 15 13 13 17 22 23 22 24 26 25 24 24 21 16 13 12 9 7 9 13 15 14 14 14 14
9 9 8 8 8 8 8 8 9 9 10 11 12 12 12 12 11 11 10 9 8 7 7 6 5 5 5 5 6 7 8 8 7 6 7 11 12 12 14 15 15 15 16 15 14 12 13 17 15 12 10 5 3 2 2 4 4 4 6 7 7 7 10 14 16 17 20 23 22 23 25 28 27 25 24 22 19 16 15 12 8 8 12 14 14 14 14 13
8 8 8 8 8 8 7 8 9 10 11 11 12 12 11 11 10 10 9 9 8 7 6 5 4 4 4 4 6 8 9 7 7 5 5 10 15 15 14 14 15 15 17 16 12 11 14 17 17 13 9 4 5 5 5 6 5 5 5 6 7 6 11 15 18 20 23 21 20 24 25 26 29 26 25 24 21 18 16 14 11 7 9 13 14 13 14 14
8 8 7 8 8 7 7 8 9 10 11 11 11 10 10 9 9 9 8 8 7 7 6 6 4 3 3 3 6 8 7 6 7 6 5 7 13 18 16 15 16 16 17 15 12 14 17 19 19 13 6 5 6 5 6 7 6 6 4 4 6 5 13 17 20 22 21 19 18 23 22 22 28 27 26 25 21 19 17 16 14 9 9 13 14 13 13 13
8 7 7 7 7 7 7 8 9 10 10 10 9 9 9 9 9 8 8 8 7 6 5 5 3 2 0 1 4 5 5 6 7 6 6 6 11 19 19 16 17 19 19 17 17 19 20 21 19 13 8 8 7 4 5 7 7 5 5 3 4 6 14 17 21 21 19 19 19 22 23 23 27 27 25 24 20 20 20 18 15 12 12 14 15 14 14 13
7 6 6 7 6 6 7 9 9 10 9 9 8 8 9 9 9 9 8 8 6 4 3 2 3 3 3 3 2 0 3 4 5 4 6 9 10 16 20 17 18 19 20 20 23 24 22 21 18 14 11 8 7 6 6 7 7 6 5 4 4 9 16 19 21 21 20 20 21 22 24 25 25 24 22 21 19 19 22 20 16 14 14 16 16 16 15 15
6 6 6 6 6 6 8 9 9 9 8 7 7 8 8 8 9 9 9 7 5 2 2 5 6 6 6 5 4 4 4 5 5 5 3 10 10 14 18 17 16 19 20 23 27 27 22 20 17 14 11 7 7 8 8 8 8 7 5 4 5 11 17 21 21 20 21 21 23 23 23 24 22 21 20 19 19 19 20 19 15 14 16 17 18 17 16 16
5 5 5 5 6 7 8 9 8 8 7 7 7 7 7 7 8 8 8 7 4 2 4 6 9 8 7 5 6 7 7 7 4 4 3 9 11 15 18 17 16 19 22 25 29 27 22 20 17 13 11 9 8 9 10 9 8 8 6 5 6 12 19 22 20 22 23 21 23 22 22 24 21 20 21 21 21 21 20 17 14 15 18 18 19 18 18 17
4 5 5 5 6 7 8 8 7 7 7 8 7 6 6 7 8 8 8 6 4 3 3 6 8 7 6 5 7 9 10 9 6 2 6 11 13 15 18 16 15 19 23 26 29 26 22 21 17 13 12 11 9 10 13 11 10 10 9 7 7 11 19 23 22 24 26 23 21 18 18 23 21 21 24 24 24 23 21 17 14 16 19 20 20 19 18 17
4 4 4 5 6 7 7 7 7 7 7 7 6 6 7 9 10 10 8 5 4 3 1 4 5 5 4 5 7 7 9 9 8 5 7 14 15 16 17 16 16 20 24 26 29 26 23 21 17 14 13 12 13 15 15 10 8 8 8 9 10 12 18 23 24 25 27 25 23 19 17 21 20 21 27 28 27 23 20 16 15 17 20 21 20 18 16 14
3 3 4 5 6 6 6 7 6 6 7 8 8 8 8 9 10 10 8 5 5 6 1 4 5 5 4 5 4 4 6 7 6 5 3 12 15 16 17 17 18 22 25 27 28 25 22 22 19 17 17 17 18 19 15 6 3 3 5 6 9 11 14 21 24 25 27 26 25 23 20 21 21 23 29 31 28 23 19 17 17 19 21 21 19 17 14 12
3 3 3 5 5 5 6 6 5 6 7 9 10 9 8 7 7 8 8 7 8 9 6 2 5 4 3 4 4 3 4 5 5 3 2 9 13 14 14 15 19 24 26 26 27 23 21 23 24 23 21 20 19 19 14 6 3 3 5 6 8 9 10 17 24 25 27 28 26 24 22 22 23 26 30 30 28 25 22 20 19 20 20 19 19 16 14 12
2 2 4 5 4 4 5 4 5 6 7 9 10 10 10 10 9 9 8 8 9 10 9 6 4 2 3 5 6 4 3 4 5 2 4 8 10 11 11 13 17 24 26 24 24 22 20 25 29 27 23 20 18 18 15 10 8 5 6 8 9 10 9 14 21 25 28 30 28 25 23 23 25 27 30 30 28 28 26 22 19 19 17 16 18 17 14 14
2 3 4 4 3 4 4 5 6 6 7 9 9 10 10 11 11 10 9 7 9 10 10 11 11 9 7 8 8 6 4 5 6 4 6 9 9 9 9 10 14 21 24 23 22 22 21 27 32 28 23 21 20 20 17 14 12 10 11 11 10 11 11 12 18 23 27 29 28 25 23 26 30 30 30 31 30 30 29 24 18 17 16 15 18 18 17 16
2 3 3 3 2 3 4 5 7 7 8 9 9 9 10 11 11 10 10 8 8 10 9 9 9 8 7 6 7 7 5 6 7 4 4 7 9 8 8 9 12 17 22 23 23 22 23 26 28 26 23 23 23 23 21 18 16 15 16 14 11 10 10 12 16 21 26 28 29 26 21 26 32 32 33 34 33 34 32 27 20 15 14 13 14 17 19 19
2 2 3 2 1 2 3 4 5 6 7 7 8 8 9 11 12 10 9 7 7 7 7 7 7 8 6 5 6 7 5 5 5 2 0 5 8 8 8 10 11 15 21 23 22 22 24 21 20 21 20 22 24 25 24 22 20 19 19 18 13 9 10 11 12 18 25 27 29 26 18 23 30 31 35 36 35 35 34 32 26 19 15 13 12 15 18 19
2 2 3 2 1 2 3 4 4 4 4 5 6 6 7 10 11 10 8 4 5 5 4 3 4 7 7 7 9 8 6 5 3 1 1 3 6 7 9 10 11 14 17 20 19 21 21 16 14 17 16 18 23 25 26 24 22 21 20 21 17 12 10 11 11 16 22 24 29 28 16 16 27 33 37 38 35 34 34 35 33 26 21 19 16 15 17 19
2 3 3 2 1 3 4 5 5 5 3 4 4 5 7 9 10 9 6 4 4 6 6 5 3 4 6 7 8 7 4 3 2 3 1 3 5 8 9 10 12 12 12 13 14 19 18 13 13 14 13 16 19 23 28 25 22 22 20 19 18 13 11 12 13 17 23 22 27 32 20 9 21 34 38 38 35 34 35 37 37 32 27 24 20 17 17 18
2 3 3 1 1 4 6 6 7 6 4 4 5 6 8 10 9 8 6 3 4 6 7 8 7 7 8 7 6 5 5 3 2 3 2 3 4 8 9 9 11 10 9 8 13 19 16 13 13 13 13 15 17 24 30 26 22 23 20 18 18 15 11 11 14 19 24 22 22 30 26 13 17 32 38 38 35 34 36 37 38 36 31 27 24 19 18 18
3 3 3 1 3 5 7 7 7 6 5 3 5 7 9 11 10 9 6 1 4 6 5 7 9 9 11 10 7 6 6 4 3 3 2 2 2 6 8 9 10 9 8 8 15 18 15 14 14 12 13 15 18 27 29 24 22 23 22 20 17 14 11 11 15 20 21 18 17 26 28 14 12 28 37 38 37 36 36 37 39 38 34 29 26 22 20 18
3 3 3 2 4 6 8 8 7 5 3 3 6 8 10 11 9 7 4 1 4 6 3 4 5 5 9 10 8 7 6 4 2 1 1 2 4 5 6 8 11 10 9 11 17 18 15 15 13 13 15 15 18 26 25 22 22 23 21 18 16 16 14 11 15 19 15 11 13 24 30 16 7 23 38 39 41 41 37 36 38 39 34 30 27 24 22 20
4 3 3 4 5 7 9 8 6 3 3 4 6 8 9 9 8 4 1 3 7 6 2 1 1 1 4 6 5 5 4 1 1 2 3 4 6 7 8 8 11 12 12 14 18 19 16 15 15 15 14 13 15 19 20 21 23 24 21 18 18 14 8 7 10 13 9 6 11 20 30 21 7 18 36 41 43 45 41 36 37 38 34 31 29 25 23 23
4 4 4 5 6 7 9 7 5 3 3 4 4 6 5 6 7 3 1 4 7 6 4 3 2 2 2 3 1 3 3 1 2 2 3 5 7 8 9 9 10 12 12 13 16 16 16 16 17 17 14 12 14 16 18 20 24 25 22 21 17 9 5 3 4 6 4 4 9 16 25 23 13 18 31 37 40 41 42 39 37 36 35 33 31 28 26 25
4 4 4 6 8 8 9 8 5 3 2 3 2 5 4 4 6 5 5 6 6 7 7 6 5 5 2 1 3 0 2 1 2 3 3 6 7 6 7 8 8 8 8 8 9 12 14 16 15 16 16 16 17 16 17 19 24 25 24 23 15 7 3 2 1 2 4 4 5 12 19 20 21 26 27 30 36 38 39 40 39 37 36 35 33 30 28 26
4 4 5 7 9 9 9 9 6 3 2 3 3 6 6 3 4 8 10 9 9 11 11 8 4 5 5 4 5 3 1 4 6 4 2 5 7 4 5 8 9 9 8 8 10 11 10 10 11 12 14 16 18 19 22 23 24 22 23 25 17 6 3 2 2 1 4 5 5 8 13 13 18 25 25 26 31 36 38 38 38 39 36 35 35 31 29 28
4 5 6 8 9 10 10 10 8 3 3 4 3 5 6 4 5 10 13 12 13 14 13 9 3 4 5 4 1 1 1 1 6 6 4 6 6 4 3 5 7 9 9 10 11 10 8 6 6 9 12 15 18 19 19 22 21 19 23 25 20 12 4 2 5 3 2 4 5 8 10 8 9 14 20 23 26 29 34 37 37 39 37 36 36 33 30 29
4 5 7 8 9 10 10 10 8 4 3 3 3 6 8 7 8 12 13 12 12 12 11 9 6 4 5 3 1 3 1 3 4 5 7 8 6 5 4 2 2 4 5 7 7 6 8 5 2 6 12 14 16 17 20 23 22 20 25 23 17 12 5 2 4 5 7 7 5 10 9 8 9 10 12 17 24 28 32 37 40 41 41 39 38 36 33 31
4 5 6 7 9 10 10 10 8 4 3 3 4 7 9 9 10 12 11 11 11 9 8 7 6 3 3 2 2 4 3 5 3 5 9 7 4 4 3 4 3 4 4 6 6 6 9 9 3 4 14 17 19 21 23 24 20 22 27 25 17 11 7 3 5 4 7 4 4 10 8 8 9 11 11 14 20 27 32 38 42 42 43 42 41 39 36 33
3 4 5 6 8 10 10 10 8 5 4 3 4 5 9 9 9 11 9 9 9 6 7 7 7 5 3 2 3 5 1 3 2 7 9 3 2 3 4 2 1 4 6 4 5 6 10 13 7 1 13 22 23 22 22 20 16 19 26 24 17 9 7 6 4 3 3 0 3 9 10 10 9 8 13 16 19 26 32 37 41 42 44 44 43 41 39 36
2 3 4 6 8 9 9 9 8 6 4 1 3 4 7 9 9 10 9 8 6 4 5 6 7 6 4 6 3 4 4 3 2 9 7 0 1 3 7 3 3 1 4 2 4 6 10 12 8 6 8 20 19 18 23 21 12 12 17 19 15 7 7 9 4 2 2 1 2 5 8 12 15 13 14 16 19 25 29 33 39 44 45 45 45 44 41 38
4 5 7 9 9 9 8 9 8 6 4 1 2 4 8 8 8 11 11 7 4 4 5 5 6 6 5 9 8 3 3 4 0 7 5 1 1 1 7 5 2 5 6 3 5 8 10 9 7 6 7 22 21 20 26 23 15 12 11 16 17 10 7 11 7 3 4 2 1 2 3 7 13 13 12 11 13 19 26 30 36 44 46 45 45 44 41 40
7 8 9 10 9 8 8 8 6 4 3 1 2 6 10 8 6 9 10 7 4 5 6 5 5 5 5 9 8 4 0 3 1 4 3 2 2 2 6 6 2 9 9 7 8 9 9 8 10 9 8 27 27 25 27 22 19 19 15 16 19 15 9 9 8 5 3 3 2 2 2 5 6 8 10 11 9 13 19 22 29 41 47 45 42 41 40 41
10 10 10 10 9 7 7 5 3 3 2 0 4 7 10 9 7 6 6 5 5 4 5 6 4 4 4 7 9 5 1 4 4 3 1 2 6 5 7 10 5 10 10 5 8 7 8 10 14 11 7 23 25 25 27 22 19 19 18 15 15 17 13 6 4 6 5 4 3 4 2 5 4 4 8 11 10 11 13 16 23 35 45 47 42 38 37 38
11 12 11 10 9 8 6 4 3 3 1 3 5 6 9 10 9 6 3 3 4 1 3 4 2 3 5 5 8 6 1 5 4 2 2 3 7 4 5 9 9 9 9 8 8 7 7 11 14 11 3 13 18 22 25 23 18 16 17 17 14 17 17 9 5 7 9 7 5 4 2 2 2 3 6 8 8 8 9 15 22 30 41 47 44 37 34 34
12 13 10 8 7 6 5 5 4 3 2 5 5 5 7 10 9 6 5 5 4 3 2 1 2 2 6 3 4 4 1 3 3 2 4 6 6 4 5 3 8 10 8 9 8 9 7 9 15 13 2 8 12 16 20 21 19 15 14 17 18 16 16 15 10 9 11 11 7 3 1 1 2 4 6 7 6 4 3 8 17 26 35 43 44 38 32 31
13 14 12 10 9 6 7 5 3 4 6 8 9 6 5 8 7 4 4 6 5 6 6 3 1 1 3 3 4 3 1 3 5 4 5 7 5 6 6 3 6 8 7 5 5 7 3 10 18 16 6 4 4 5 9 12 11 8 8 13 18 18 19 19 14 9 11 14 11 4 1 2 5 5 6 6 6 5 3 5 13 21 29 39 42 36 30 29
14 15 13 13 11 9 9 7 6 7 9 12 12 7 5 6 5 2 3 5 4 3 4 2 1 2 1 4 5 3 1 3 6 6 8 9 5 4 5 3 5 7 6 3 2 2 6 15 18 13 7 2 2 2 2 3 5 5 5 7 13 18 21 20 14 12 12 13 12 5 1 5 8 7 6 5 6 8 7 9 14 18 24 30 33 31 28 28
15 15 15 14 12 12 12 10 11 12 13 15 13 7 5 6 6 4 3 3 2 4 3 3 1 4 4 5 3 3 1 1 4 4 6 9 8 2 2 2 5 11 10 5 0 4 9 14 15 14 10 2 3 3 3 5 9 11 8 4 9 14 17 16 14 14 14 13 12 6 1 8 11 9 7 6 7 9 9 11 15 19 22 25 26 27 27 29
18 16 16 15 13 14 16 14 14 14 13 14 12 7 4 7 7 4 4 4 3 4 1 3 1 4 6 5 3 2 1 1 1 2 3 5 6 7 4 3 1 9 13 7 0 8 11 12 10 10 10 7 11 12 7 8 12 12 9 5 7 10 13 15 16 15 14 12 11 6 5 9 12 10 7 7 7 7 8 10 14 18 22 24 26 27 28 29
20 19 18 17 15 14 16 17 16 14 11 11 10 5 4 7 6 3 7 6 5 4 3 1 2 1 4 3 3 2 1 2 1 1 1 3 3 4 6 5 5 2 9 10 2 9 12 11 8 7 10 8 12 16 12 11 13 14 10 5 4 4 7 12 15 14 14 15 12 8 8 11 13 11 9 8 8 7 7 8 11 15 18 20 23 25 27 30
18 20 20 20 19 16 16 17 17 15 11 9 8 4 5 6 3 3 8 8 6 6 6 5 5 2 1 2 3 2 0 1 1 1 2 2 3 2 4 6 4 3 4 8 4 9 13 7 7 6 7 5 7 13 13 9 9 11 10 8 7 6 8 11 12 11 12 14 12 10 12 13 13 11 8 8 8 8 8 8 9 12 15 16 17 19 22 28
14 18 20 21 22 20 16 15 16 15 10 8 8 4 2 3 3 4 8 8 5 6 8 7 5 3 2 4 4 2 1 2 3 1 1 1 3 5 6 7 6 5 5 6 5 9 13 6 6 5 5 6 9 12 13 11 11 14 16 13 10 10 11 11 11 11 12 13 13 14 16 16 13 10 8 7 6 6 7 7 8 11 13 14 14 13 14 19
11 14 17 21 22 21 17 14 14 14 10 9 10 7 5 3 2 4 8 8 4 5 6 5 4 4 5 5 4 4 3 3 3 1 1 1 2 3 6 8 6 5 7 6 6 5 10 8 3 2 3 6 10 13 13 13 14 18 21 19 13 11 12 14 15 15 17 20 20 18 18 17 14 11 8 6 5 4 3 4 5 7 9 12 12 11 9 10
11 13 15 18 20 21 19 16 16 14 11 9 9 8 7 5 4 5 8 8 6 5 5 5 5 6 6 5 5 5 5 4 4 3 3 1 0 2 5 8 6 3 4 5 5 6 5 5 5 4 5 6 4 2 1 5 7 11 18 20 16 11 8 12 17 17 16 17 19 18 18 17 14 12 8 6 6 3 1 2 3 4 5 6 8 8 7 8
Wind_Direction
4 0 356 350 346 342 339 337 336 333 330 327 325 322 319 315 310 307 303 300 300 300 301 300 299 292 284 275 264 257 251 245 241 239 238 236 233 229 227 226 228 230 225 218 217 217 217 221 224 225 226 214 158 207 247 42 46 19 4 359 337 309 231 199 192 185 183 180 179 180 180 182 182 183 185 173 155 173 168 168 179 177 180 186 178 168 162 159
9 4 358 352 348 345 343 342 340 337 334 331 328 327 325 324 321 316 309 302 300 299 301 304 304 302 297 290 280 269 258 249 241 236 234 232 229 225 222 221 223 227 223 211 208 204 204 215 217 211 204 181 165 202 260 50 39 18 3 359 345 322 226 193 184 180 183 183 177 178 179 179 182 183 184 179 162 166 172 174 181 180 180 181 177 170 164 160
13 6 358 353 349 347 346 345 344 343 340 336 331 330 327 325 324 322 318 311 307 304 303 302 303 303 302 301 296 285 270 254 240 233 229 227 224 221 221 218 216 216 211 201 196 189 192 203 203 197 186 170 171 172 120 73 32 17 357 352 350 334 178 159 168 178 185 186 177 179 182 178 183 185 183 179 161 170 181 175 177 183 186 182 176 169 164 158
13 8 0 356 353 352 351 349 348 346 345 344 340 336 332 329 325 323 321 319 317 315 311 306 301 300 300 302 302 296 280 255 239 230 226 223 218 217 218 214 212 212 208 203 195 189 193 197 195 191 182 173 171 150 110 68 27 11 352 346 346 334 130 122 148 174 186 189 182 183 185 182 187 185 182 180 167 175 184 176 180 188 188 182 174 166 162 157
10 6 3 359 358 357 356 354 353 351 349 348 347 344 340 336 331 328 324 322 322 321 319 314 305 298 296 296 298 294 273 250 237 227 220 218 213 213 214 211 211 211 205 201 200 198 199 197 194 194 188 187 176 138 91 50 20 359 349 342 339 293 150 129 134 167 186 188 182 185 187 187 191 184 183 187 171 165 170 166 189 195 188 183 173 163 161 158
4 3 2 360 360 359 357 356 354 353 352 350 350 347 343 339 335 330 326 325 323 322 321 317 311 297 290 287 283 280 258 226 213 214 212 210 208 207 207 209 210 210 203 199 206 206 202 198 195 195 188 181 158 126 73 42 10 349 341 333 334 192 165 157 165 179 181 183 181 183 185 188 191 185 186 191 173 158 167 164 188 192 192 188 176 164 161 158
359 360 358 358 359 358 358 357 353 351 351 349 347 344 341 338 333 330 326 324 321 319 316 312 307 297 285 274 265 264 242 207 199 204 199 199 204 203 201 203 206 208 198 199 211 207 203 199 190 185 175 159 136 117 72 39 355 344 329 324 328 200 177 181 199 184 176 179 180 177 180 187 187 184 188 189 181 182 188 182 178 187 198 191 178 165 163 158
353 356 355 355 357 357 356 353 350 348 348 345 342 340 336 333 330 327 325 322 319 314 311 306 301 295 283 266 257 255 239 216 212 210 196 189 194 199 199 199 202 201 189 196 210 203 201 192 179 179 174 155 128 103 68 9 337 339 315 314 312 227 195 202 209 185 176 175 178 183 185 187 184 187 190 187 182 185 196 189 163 179 189 183 178 170 166 162
348 352 353 352 354 355 353 349 346 345 344 340 337 335 330 327 325 323 324 322 320 316 312 308 300 295 282 265 254 247 235 226 225 216 200 189 187 193 197 197 198 194 185 191 199 198 196 185 181 184 169 149 134 105 48 308 311 310 289 293 276 232 206 205 195 182 182 172 178 189 185 184 185 190 192 191 187 183 198 191 147 166 177 173 177 174 168 165
345 349 350 350 353 353 351 346 341 341 339 335 332 328 324 322 322 324 327 327 326 324 321 315 305 294 277 261 248 242 238 239 239 227 205 194 190 189 193 196 195 192 187 189 195 196 186 182 187 179 158 159 183 171 238 246 260 282 284 281 265 230 203 194 177 177 182 177 185 185 176 180 182 185 189 193 195 191 199 193 158 161 172 172 179 176 168 167
343 346 349 350 352 352 350 343 338 337 334 330 326 321 320 322 325 330 332 333 335 336 337 332 320 299 276 257 245 243 242 247 245 231 215 203 196 190 190 194 191 191 192 188 185 175 169 179 183 167 157 191 200 193 214 219 237 267 279 272 272 243 200 183 170 175 178 180 190 179 174 182 179 180 188 191 196 196 199 194 179 174 176 180 185 180 174 171
343 345 349 350 349 350 348 339 334 333 329 325 320 317 322 326 330 335 337 340 344 348 349 341 336 318 283 252 247 247 244 245 239 219 206 210 202 193 189 190 188 188 192 182 164 161 166 177 177 167 171 183 174 189 205 212 230 248 247 255 285 241 198 183 171 177 178 177 185 176 176 185 181 183 191 195 198 200 201 198 191 192 191 189 191 187 181 176
343 346 351 349 348 348 342 334 332 331 326 321 318 321 329 331 338 345 346 349 354 357 351 347 357 350 9 202 239 254 256 246 239 218 185 191 198 193 190 186 185 186 185 171 157 161 168 177 178 176 182 163 152 174 190 199 214 220 210 233 284 213 190 181 174 181 182 175 180 180 177 181 183 186 192 196 195 196 200 200 196 199 200 196 196 192 188 183
343 348 353 349 346 344 336 332 332 329 324 320 323 333 340 343 352 358 356 354 356 360 3 41 72 87 94 113 150 199 312 289 266 251 188 195 199 193 190 182 182 184 178 167 161 164 171 183 185 181 185 169 159 180 178 190 198 195 203 226 242 195 181 178 177 184 186 173 173 180 177 176 181 184 188 191 187 192 197 197 200 204 204 200 198 194 194 188
346 353 354 349 344 337 332 334 333 330 325 327 337 345 348 355 5 9 1 353 356 27 83 98 101 93 90 100 104 90 32 360 314 302 201 199 198 189 190 182 181 182 174 168 165 165 174 188 187 181 185 173 170 187 187 197 197 192 208 218 201 186 178 179 182 185 184 173 168 176 175 172 180 183 183 187 187 192 194 196 205 207 204 203 199 196 195 187
352 357 355 347 337 333 335 338 337 334 333 341 349 349 352 1 9 9 356 347 358 72 108 115 112 96 87 88 83 79 54 33 351 313 192 189 188 184 186 181 179 178 172 172 170 168 178 187 184 183 184 175 181 189 180 185 193 194 209 208 188 183 182 183 185 183 181 179 173 174 174 173 179 184 185 188 189 192 196 201 209 206 204 202 200 197 193 183
1 2 354 340 333 336 341 344 343 342 347 353 354 349 352 2 4 358 349 350 14 69 119 138 128 108 93 94 96 78 51 41 23 347 168 174 181 179 179 175 173 174 174 176 174 172 182 186 183 187 185 180 191 186 176 188 200 199 205 208 197 189 189 189 188 185 183 183 181 180 183 183 185 186 188 191 190 193 198 205 211 205 204 202 200 198 190 180
12 5 348 334 335 341 348 351 351 358 9 11 12 12 16 20 14 2 353 358 15 11 172 178 154 125 108 108 113 79 50 58 44 21 159 168 175 171 166 164 167 173 176 179 178 178 186 187 184 189 189 187 194 191 186 192 198 197 204 210 202 192 195 194 191 188 186 184 186 189 193 192 191 189 190 192 190 194 200 208 212 206 204 201 196 196 187 177
22 2 339 334 339 350 357 358 6 26 38 43 48 42 34 27 18 16 21 45 39 13 338 199 175 137 114 109 107 62 52 71 46 4 172 169 171 165 156 157 166 175 179 181 180 183 191 191 187 191 193 192 194 194 188 170 144 185 207 214 207 196 198 198 194 192 189 188 188 192 199 198 191 189 191 190 188 192 200 207 207 201 201 198 191 191 185 178
22 352 333 335 343 1 5 8 28 46 55 62 63 52 47 51 49 50 58 70 58 42 47 152 184 154 100 78 61 58 54 51 47 21 168 169 170 163 153 156 168 177 180 182 183 186 196 199 197 196 194 195 197 194 188 183 178 183 205 217 215 209 205 201 198 197 195 195 194 192 198 201 192 187 188 187 186 190 198 205 204 199 197 195 189 187 187 187
16 341 331 336 350 14 16 27 45 51 58 66 64 53 55 66 64 59 63 67 55 54 63 72 94 92 82 67 45 44 40 53 86 114 167 161 165 167 162 163 173 182 183 182 185 191 203 207 205 200 195 198 204 202 197 206 213 215 232 221 209 211 209 201 201 204 201 199 200 192 190 196 192 186 187 187 188 191 197 204 207 201 197 197 194 190 192 196
5 333 326 335 2 31 36 51 53 49 56 61 58 48 46 52 51 50 57 66 67 76 84 79 73 69 70 64 50 46 48 88 117 159 176 163 166 174 180 180 181 186 185 184 187 194 208 213 209 204 199 199 204 210 212 218 223 234 243 227 212 212 206 201 204 209 209 205 205 198 188 188 187 186 188 188 190 192 198 206 213 206 199 204 203 197 199 203
355 325 321 332 12 48 55 65 63 55 56 59 54 39 33 37 40 44 50 61 79 88 95 92 82 73 63 51 48 47 50 98 116 118 161 177 181 181 192 192 188 188 187 189 191 197 211 215 211 208 207 202 202 210 217 224 228 233 236 229 224 219 210 210 206 206 210 209 207 206 196 187 187 187 187 187 191 193 198 206 216 217 209 214 214 206 207 208
337 314 315 324 11 55 54 70 75 66 57 56 50 34 26 26 25 30 34 49 80 85 91 93 69 51 58 67 60 59 68 96 110 88 190 189 182 185 189 186 191 189 187 193 198 209 217 212 208 212 212 206 205 211 216 222 228 232 236 235 239 244 230 224 215 204 205 208 208 205 196 189 191 191 188 188 193 195 199 205 211 218 218 223 225 215 215 214
321 304 308 304 8 60 60 71 92 94 66 53 49 30 19 22 22 23 21 38 79 67 62 78 47 41 65 90 81 78 80 77 76 17 308 189 181 189 182 180 191 188 189 198 208 223 222 205 203 213 214 212 212 214 214 219 230 235 237 238 245 264 254 231 221 201 195 206 210 203 194 191 194 194 191 191 195 197 201 205 209 213 214 219 224 218 219 218
307 300 297 284 61 87 90 90 108 118 92 66 56 29 19 24 24 25 24 36 66 56 43 31 21 50 71 93 94 80 53 51 63 29 46 183 194 192 181 185 189 186 192 202 220 230 216 194 205 222 225 224 223 217 211 214 230 237 237 236 239 251 253 235 218 196 190 203 209 203 201 193 192 195 193 193 198 199 202 205 208 212 212 215 220 220 224 224
301 293 283 263 104 108 113 111 118 120 106 84 50 27 17 16 19 21 9 353 37 45 42 34 40 65 70 82 96 76 52 72 89 47 99 159 194 194 191 198 197 191 193 213 233 226 213 209 226 241 240 235 232 216 205 208 225 236 239 242 241 237 240 241 220 201 198 204 203 202 204 197 194 199 195 196 200 200 202 204 205 211 214 215 218 220 228 231
297 281 268 223 132 125 128 127 126 118 101 64 29 22 8 4 10 9 357 350 31 23 36 50 57 73 73 72 77 70 59 59 60 58 110 145 197 204 214 224 222 216 209 234 239 225 227 242 247 256 256 248 229 207 199 205 222 237 243 246 243 229 226 234 218 206 202 201 196 199 203 201 205 204 197 199 203 201 202 203 203 209 213 215 217 217 224 234
294 272 250 190 148 142 144 139 132 122 89 41 31 23 4 358 357 353 1 37 9 5 21 53 57 71 75 79 73 60 51 41 48 139 221 223 221 238 253 244 241 241 231 242 248 238 233 241 252 265 264 250 220 203 200 208 223 236 241 236 222 211 210 202 198 203 201 199 202 200 201 201 211 206 200 201 204 203 202 200 200 206 211 213 214 214 221 230
290 264 236 188 161 156 155 148 141 130 75 46 37 17 359 2 1 347 5 357 359 11 350 317 54 81 82 92 76 59 63 39 279 248 275 255 247 267 275 262 251 247 243 252 260 253 239 241 253 254 249 238 222 218 218 220 227 231 229 217 199 190 193 189 193 198 194 213 219 207 203 203 213 211 206 207 206 202 200 198 197 202 209 212 212 213 219 225
287 259 229 188 172 166 163 159 156 136 68 35 21 11 13 37 31 27 43 356 0 5 330 298 268 258 91 98 57 73 100 251 263 254 281 285 277 268 264 260 245 244 260 270 267 262 258 260 255 245 242 238 237 238 232 228 228 226 221 206 184 149 118 164 198 187 188 247 231 218 209 205 217 219 213 216 213 204 201 203 200 199 205 209 210 212 217 222
287 254 221 192 182 173 169 169 166 143 61 26 29 31 40 60 40 25 18 6 1 360 352 337 291 254 182 184 264 244 104 43 314 266 275 300 297 276 256 248 236 249 282 289 275 273 272 265 255 250 250 247 240 219 201 208 217 218 212 193 166 95 82 195 266 191 220 242 226 219 208 209 228 228 221 221 216 209 208 210 207 203 203 206 209 211 215 220
277 245 215 196 189 181 177 176 169 158 65 63 70 48 45 65 40 18 14 12 11 12 8 353 305 216 191 215 248 252 135 55 12 333 296 300 298 291 260 244 245 263 279 292 300 305 290 261 252 252 246 246 238 205 182 186 200 211 207 191 172 123 95 223 256 265 247 227 213 202 197 215 237 234 231 226 215 212 213 213 210 208 207 207 210 213 214 217
263 235 213 201 196 189 185 182 178 168 93 83 69 48 43 44 27 12 11 14 16 20 21 19 43 165 190 206 235 333 224 354 9 11 1 329 315 315 287 250 254 270 280 291 299 305 296 263 251 254 243 233 226 217 205 193 192 206 209 199 191 184 169 193 205 203 166 175 178 171 185 222 231 226 234 230 219 214 211 212 211 209 208 209 211 213 214 216
257 236 219 205 199 194 191 190 189 170 108 91 67 59 46 30 13 4 6 10 14 25 33 38 65 150 200 218 42 71 58 320 359 12 349 341 333 326 352 30 303 283 290 293 290 293 289 288 306 256 242 227 213 218 220 200 184 193 200 197 197 208 224 154 163 181 150 134 165 179 197 241 225 217 227 222 220 214 207 209 212 209 207 208 210 212 213 214
254 237 225 210 201 198 197 198 199 185 141 111 81 64 39 26 13 3 3 6 11 26 26 31 68 112 214 229 172 132 46 360 10 345 337 350 350 318 354 36 4 339 324 295 305 335 303 296 340 217 219 212 203 207 212 204 190 186 194 202 210 227 249 177 118 131 151 133 194 200 219 245 227 228 224 210 212 210 205 208 211 209 207 207 208 210 211 212
234 228 220 207 201 199 202 207 209 193 164 116 81 51 26 27 20 5 2 0 9 26 7 11 44 35 9 45 159 185 290 356 338 325 329 353 22 331 335 346 345 12 17 333 320 356 326 308 339 88 208 205 202 206 205 203 203 191 194 207 212 218 245 215 141 99 145 119 221 216 236 236 221 223 219 213 208 204 205 209 211 210 208 207 207 208 210 211
177 193 190 193 198 200 207 215 216 204 188 123 57 40 26 34 35 21 12 5 18 47 14 17 33 26 41 50 69 186 236 261 311 339 333 256 88 359 354 355 163 31 16 4 327 357 351 327 348 50 195 200 195 200 195 190 197 199 198 207 206 200 214 207 183 129 178 273 248 231 249 240 232 229 218 216 211 205 204 206 209 210 209 208 207 207 208 209
142 154 173 185 190 195 208 215 219 223 215 200 42 29 17 24 42 40 31 20 31 46 31 41 39 36 59 42 41 115 216 230 305 1 350 4 50 21 9 24 109 357 332 262 304 341 1 346 336 6 202 196 187 187 191 187 187 194 201 209 208 208 214 209 209 185 166 171 235 250 274 250 239 234 225 222 218 212 208 207 208 208 209 211 208 207 209 210
144 152 166 171 177 194 205 206 213 225 212 203 11 14 12 12 30 40 40 31 15 24 33 48 56 60 58 36 40 73 236 217 148 17 348 30 86 127 38 40 27 344 326 247 265 312 345 346 332 348 184 188 186 187 192 191 189 194 201 205 202 204 215 217 217 209 168 166 161 148 269 264 248 235 223 218 220 219 216 218 215 209 209 211 209 208 210 212
152 155 153 145 149 171 174 173 197 207 186 321 350 5 10 7 3 15 39 31 360 8 37 38 52 61 38 39 48 48 220 188 145 71 48 134 133 127 49 46 18 342 339 282 261 293 330 329 323 339 168 184 191 195 199 200 198 204 211 210 203 207 214 205 199 215 210 209 187 166 249 278 272 240 215 209 215 219 223 233 229 215 208 209 209 208 209 213
163 166 164 146 140 153 157 154 182 192 135 7 347 351 357 353 354 358 344 338 340 2 63 53 84 36 12 35 49 40 122 176 167 98 50 136 139 110 43 54 37 356 333 305 273 268 313 331 322 318 219 189 199 206 208 205 203 212 220 220 215 214 217 210 202 217 214 220 224 208 242 296 286 229 205 202 210 217 239 243 232 220 210 206 207 208 209 213
173 179 189 180 161 168 185 174 173 207 314 340 324 326 341 338 343 348 305 290 286 255 312 9 171 23 0 1 27 20 78 128 169 151 80 132 143 24 0 34 23 9 339 308 275 250 274 345 350 335 277 170 186 200 206 205 208 221 229 229 225 221 225 231 237 232 217 213 209 193 226 235 185 196 192 192 193 190 259 236 212 209 206 203 204 208 210 213
189 192 204 206 192 193 202 195 214 267 294 304 297 298 322 330 336 336 299 301 291 259 275 308 183 145 358 355 2 344 332 91 128 143 99 140 193 324 338 293 324 356 6 336 277 247 273 18 11 2 19 87 106 149 178 185 197 223 244 244 237 225 222 232 240 235 223 218 209 200 256 168 153 159 177 186 178 151 100 138 170 185 195 199 202 207 211 215
200 201 207 209 206 211 217 229 254 267 285 290 290 304 335 342 342 321 294 315 312 228 233 316 93 164 324 353 15 14 340 93 110 115 98 111 151 292 320 318 336 1 24 21 291 212 73 42 28 32 48 36 357 1 4 114 150 210 251 248 232 222 219 226 229 220 222 221 210 209 49 137 139 134 149 164 162 153 132 128 146 164 182 193 199 206 212 216
202 204 207 210 214 224 231 242 254 261 282 291 293 309 334 336 326 288 252 275 243 164 196 296 271 209 270 318 360 48 53 101 96 100 96 93 100 113 284 301 27 31 35 45 332 155 100 52 38 53 58 71 134 77 44 101 149 197 229 210 202 216 219 218 217 218 224 218 203 212 205 148 137 125 130 137 147 159 160 155 154 161 173 186 196 207 214 217
208 208 205 208 216 226 232 241 251 259 274 292 303 311 316 329 321 265 215 221 201 159 207 309 297 230 263 304 337 12 345 271 70 88 88 64 78 100 110 198 171 27 27 34 111 160 116 59 40 66 67 82 97 96 130 146 139 167 199 182 177 212 217 209 211 217 223 216 200 203 202 160 137 126 122 118 129 146 163 174 177 178 183 192 201 210 216 218
219 218 210 210 215 222 227 234 244 253 263 280 295 302 301 322 329 236 198 199 199 195 206 104 68 260 270 306 332 343 302 248 210 181 143 34 43 113 106 133 170 20 18 25 20 171 133 62 39 85 82 89 97 97 125 144 126 138 164 156 139 183 195 196 207 212 218 220 209 192 185 163 143 135 124 115 123 128 144 171 186 192 197 204 212 219 221 220
227 228 222 217 218 222 228 233 238 245 253 260 268 291 303 299 298 177 181 189 197 199 189 151 114 126 239 307 322 337 263 187 143 230 242 39 44 95 85 74 94 88 29 22 18 179 159 75 45 109 92 76 99 98 105 121 118 118 118 108 105 118 146 171 190 200 208 211 200 178 171 157 140 133 123 119 128 128 137 158 179 193 203 211 220 229 231 229
234 234 230 225 223 227 231 231 231 233 235 241 248 263 285 264 250 189 180 181 186 184 180 170 150 160 239 288 296 286 226 178 152 165 224 128 73 73 52 27 34 63 67 51 65 157 165 118 64 125 128 97 105 107 100 93 90 89 84 84 99 117 128 135 141 151 159 156 156 164 162 145 127 122 119 120 130 134 140 153 171 189 204 214 223 235 241 242
245 239 235 231 227 228 228 224 223 224 223 236 242 233 218 203 172 191 191 182 176 167 168 176 176 194 236 259 261 251 225 193 196 219 211 154 73 53 26 9 14 56 73 73 72 125 167 171 133 107 148 129 116 114 104 83 77 77 67 59 69 93 99 98 107 123 129 133 147 159 149 131 117 112 111 108 111 119 134 152 172 189 207 217 223 234 240 246
255 246 240 234 228 226 225 225 227 229 229 236 234 225 226 211 155 184 209 206 206 197 187 203 204 198 216 229 230 234 232 232 246 249 225 219 350 339 357 9 11 27 64 78 76 76 106 167 206 223 198 193 208 181 103 5 22 57 53 48 52 59 77 98 104 110 118 132 147 145 132 122 112 102 97 96 100 104 143 209 229 225 218 215 219 233 234 226
Height
3156 3155 3155 3154 3154 3153 3153 3152 3152 3151 3151 3150 3149 3149 3149 3149 3148 3148 3148 3148 3147 3147 3147 3148 3148 3148 3148 3149 3149 3150 3150 3151 3152 3153 3154 3155 3155 3156 3157 3157 3158 3158 3159 3160 3161 3162 3163 3163 3163 3164 3164 3165 3165 3166 3166 3165 3165 3164 3164 3164 3163 3162 3161 3161 3161 3163 3165 3167 3169 3171 3172 3173 3174 3175 3176 3177 3177 3178 3179 3180 3181 3182 3184 3185 3185 3185 3186 3187
3156 3156 3155 3154 3153 3153 3153 3152 3152 3151 3150 3150 3149 3148 3148 3148 3148 3147 3147 3147 3147 3147 3147 3147 3147 3147 3147 3147 3148 3148 3149 3149 3151 3151 3152 3153 3154 3155 3155 3156 3157 3157 3158 3159 3160 3161 3162 3162 3163 3163 3164 3164 3165 3165 3165 3165 3165 3164 3164 3163 3162 3161 3159 3159 3161 3163 3165 3167 3169 3170 3172 3173 3174 3175 3176 3177 3176 3177 3179 3179 3181 3182 3183 3184 3185 3185 3186 3188
3156 3156 3155 3154 3153 3153 3152 3152 3151 3151 3150 3149 3149 3148 3148 3147 3147 3147 3146 3146 3146 3146 3146 3146 3146 3146 3146 3146 3146 3146 3147 3148 3149 3149 3150 3151 3153 3153 3154 3155 3156 3157 3157 3158 3159 3160 3161 3161 3162 3162 3163 3164 3165 3165 3165 3165 3165 3164 3164 3163 3162 3161 3159 3159 3162 3163 3165 3167 3169 3171 3172 3173 3174 3175 3177 3177 3177 3178 3179 3179 3180 3182 3183 3184 3185 3186 3187 3188
3156 3156 3155 3154 3153 3153 3152 3151 3151 3150 3149 3149 3148 3148 3147 3147 3146 3146 3146 3145 3145 3145 3145 3145 3145 3145 3145 3145 3145 3145 3145 3146 3147 3148 3149 3150 3151 3152 3153 3154 3155 3156 3156 3157 3158 3158 3159 3159 3161 3161 3162 3164 3164 3165 3164 3164 3164 3164 3164 3163 3162 3161 3161 3161 3163 3164 3166 3168 3170 3171 3172 3173 3174 3176 3178 3178 3177 3178 3180 3181 3182 3183 3183 3184 3185 3186 3187 3189
3156 3155 3155 3154 3153 3152 3152 3151 3150 3150 3149 3148 3148 3147 3147 3146 3146 3145 3145 3145 3145 3145 3145 3145 3144 3144 3144 3144 3144 3144 3144 3145 3145 3146 3148 3149 3150 3151 3152 3153 3154 3155 3156 3157 3157 3157 3158 3159 3160 3161 3162 3163 3164 3164 3164 3164 3164 3163 3163 3163 3163 3162 3161 3162 3164 3165 3166 3168 3170 3171 3172 3173 3174 3176 3177 3178 3178 3178 3180 3182 3184 3185 3185 3186 3187 3187 3188 3189
3156 3155 3154 3154 3153 3152 3151 3151 3150 3149 3148 3148 3147 3147 3146 3146 3145 3145 3145 3144 3144 3144 3144 3144 3144 3143 3143 3143 3143 3143 3143 3144 3144 3145 3146 3147 3148 3149 3151 3152 3153 3154 3155 3156 3157 3157 3158 3159 3160 3162 3163 3163 3164 3164 3164 3163 3164 3163 3163 3164 3164 3163 3162 3162 3164 3165 3166 3168 3169 3170 3172 3173 3174 3176 3178 3178 3179 3180 3182 3183 3185 3186 3187 3188 3189 3189 3189 3190
3155 3154 3154 3153 3153 3152 3151 3150 3149 3149 3148 3147 3147 3146 3146 3145 3145 3144 3144 3144 3143 3143 3143 3143 3143 3142 3142 3142 3142 3142 3142 3143 3143 3144 3145 3146 3147 3148 3149 3151 3151 3153 3154 3155 3156 3157 3158 3159 3161 3162 3162 3163 3164 3164 3163 3163 3163 3163 3164 3164 3164 3164 3164 3163 3164 3165 3166 3168 3170 3171 3172 3173 3175 3176 3177 3178 3179 3180 3182 3184 3185 3186 3188 3189 3190 3190 3190 3191
3155 3154 3153 3153 3152 3151 3151 3150 3149 3148 3147 3147 3146 3145 3145 3144 3144 3143 3143 3143 3143 3142 3142 3142 3142 3142 3141 3141 3141 3141 3141 3142 3142 3143 3144 3145 3146 3147 3148 3149 3150 3152 3153 3155 3156 3156 3158 3159 3161 3162 3163 3163 3164 3163 3163 3163 3163 3163 3163 3164 3164 3164 3164 3164 3164 3165 3166 3167 3170 3171 3171 3173 3176 3176 3177 3178 3179 3180 3182 3184 3185 3186 3188 3189 3190 3191 3191 3192
3154 3154 3153 3152 3152 3151 3150 3150 3149 3148 3147 3146 3146 3145 3144 3144 3143 3143 3142 3142 3141 3141 3141 3141 3141 3141 3140 3140 3140 3140 3140 3141 3141 3142 3143 3144 3145 3146 3147 3148 3150 3151 3152 3154 3155 3156 3157 3159 3161 3162 3163 3163 3163 3163 3163 3163 3163 3163 3163 3164 3163 3163 3163 3163 3164 3165 3166 3167 3169 3170 3171 3174 3175 3176 3177 3178 3179 3181 3183 3184 3185 3187 3188 3190 3191 3192 3192 3193
3154 3153 3153 3152 3151 3151 3150 3149 3149 3148 3147 3146 3145 3145 3144 3143 3142 3142 3141 3141 3140 3140 3140 3140 3140 3139 3139 3139 3139 3139 3139 3140 3141 3141 3142 3143 3144 3145 3147 3148 3149 3150 3151 3153 3154 3156 3157 3160 3161 3162 3162 3162 3162 3163 3163 3163 3163 3163 3163 3163 3162 3162 3163 3163 3164 3165 3166 3167 3168 3169 3171 3173 3174 3175 3177 3178 3180 3181 3183 3184 3185 3187 3189 3190 3191 3192 3193 3194
3154 3153 3152 3152 3151 3151 3150 3149 3148 3148 3147 3146 3145 3144 3143 3142 3141 3141 3140 3140 3139 3139 3139 3138 3138 3138 3138 3138 3138 3138 3138 3139 3140 3140 3141 3141 3142 3144 3145 3146 3148 3150 3151 3152 3155 3156 3158 3159 3161 3161 3162 3162 3162 3162 3162 3162 3163 3163 3163 3162 3162 3162 3163 3163 3164 3165 3165 3165 3167 3169 3172 3174 3175 3176 3177 3178 3180 3182 3183 3184 3185 3187 3189 3191 3192 3192 3193 3194
3153 3153 3152 3151 3151 3150 3149 3149 3148 3147 3146 3145 3144 3143 3143 3142 3141 3140 3139 3139 3138 3138 3138 3137 3137 3137 3137 3137 3137 3137 3138 3138 3139 3140 3140 3141 3141 3142 3143 3145 3147 3148 3150 3153 3155 3156 3157 3158 3160 3161 3161 3161 3161 3161 3161 3162 3162 3163 3163 3163 3162 3162 3162 3163 3164 3165 3165 3165 3167 3170 3172 3174 3175 3176 3177 3178 3180 3182 3184 3185 3186 3187 3189 3190 3191 3192 3193 3194
3153 3152 3152 3151 3150 3150 3149 3148 3147 3147 3146 3145 3144 3143 3142 3141 3141 3140 3139 3139 3138 3138 3137 3137 3137 3136 3136 3136 3136 3136 3137 3138 3138 3139 3140 3140 3141 3141 3142 3144 3145 3147 3149 3152 3154 3155 3157 3158 3159 3160 3160 3160 3160 3160 3161 3162 3162 3162 3162 3163 3162 3162 3162 3162 3164 3165 3165 3166 3168 3170 3171 3173 3174 3176 3177 3179 3180 3182 3183 3185 3186 3188 3189 3190 3191 3192 3193 3194
3153 3152 3152 3151 3150 3149 3148 3148 3147 3146 3145 3144 3143 3142 3142 3141 3140 3140 3139 3138 3138 3138 3137 3137 3136 3136 3136 3136 3136 3136 3136 3136 3137 3138 3139 3139 3140 3141 3142 3143 3144 3146 3148 3150 3151 3153 3156 3156 3158 3159 3160 3160 3159 3160 3161 3161 3161 3162 3162 3162 3162 3161 3161 3163 3165 3166 3165 3166 3168 3169 3170 3172 3173 3175 3177 3178 3180 3181 3183 3185 3187 3188 3189 3190 3191 3193 3193 3195
3152 3152 3151 3150 3150 3149 3148 3147 3146 3145 3145 3144 3143 3142 3141 3141 3140 3139 3139 3138 3138 3137 3137 3137 3136 3136 3136 3136 3136 3136 3136 3136 3136 3137 3138 3138 3139 3141 3142 3143 3144 3145 3148 3149 3150 3152 3153 3155 3157 3158 3159 3159 3158 3159 3161 3161 3161 3161 3161 3161 3161 3161 3162 3164 3165 3166 3166 3166 3168 3170 3171 3172 3173 3175 3176 3178 3180 3182 3183 3185 3187 3188 3189 3190 3192 3193 3194 3195
3152 3151 3151 3150 3149 3148 3148 3147 3146 3145 3144 3143 3142 3142 3141 3140 3139 3139 3139 3138 3138 3138 3137 3137 3136 3136 3137 3136 3136 3137 3136 3136 3135 3136 3137 3137 3138 3140 3141 3142 3143 3145 3147 3149 3149 3150 3152 3153 3156 3157 3158 3158 3158 3159 3160 3161 3161 3161 3161 3161 3161 3162 3163 3163 3164 3166 3166 3167 3169 3170 3170 3172 3173 3174 3176 3178 3180 3182 3184 3185 3187 3188 3189 3190 3192 3192 3194 3195
3152 3151 3150 3149 3149 3148 3147 3147 3146 3145 3144 3143 3142 3141 3141 3140 3139 3139 3138 3138 3138 3138 3138 3137 3137 3137 3137 3137 3137 3137 3136 3136 3135 3135 3136 3136 3138 3139 3140 3141 3143 3145 3147 3148 3148 3150 3151 3152 3154 3156 3156 3158 3158 3159 3160 3160 3160 3160 3160 3160 3161 3161 3162 3163 3163 3165 3166 3166 3168 3169 3170 3171 3172 3173 3176 3178 3180 3182 3184 3185 3187 3188 3189 3191 3191 3192 3194 3195
3151 3151 3150 3149 3148 3148 3147 3147 3146 3145 3144 3143 3142 3141 3141 3140 3139 3139 3138 3138 3138 3138 3138 3137 3137 3137 3137 3137 3137 3137 3136 3136 3136 3136 3136 3136 3137 3138 3139 3140 3142 3144 3146 3147 3148 3149 3150 3152 3154 3155 3156 3157 3158 3159 3159 3159 3159 3159 3160 3160 3160 3160 3161 3162 3163 3164 3165 3166 3167 3168 3170 3171 3172 3174 3176 3178 3181 3182 3184 3186 3187 3188 3189 3190 3191 3192 3193 3194
3151 3150 3150 3149 3148 3148 3147 3147 3146 3145 3144 3143 3142 3141 3141 3140 3139 3138 3138 3138 3138 3138 3137 3137 3137 3137 3137 3137 3137 3137 3136 3136 3136 3137 3136 3136 3137 3138 3138 3139 3141 3143 3145 3146 3148 3149 3150 3151 3152 3153 3154 3155 3156 3157 3158 3159 3159 3159 3160 3160 3160 3160 3160 3161 3163 3164 3165 3166 3166 3167 3169 3170 3172 3174 3176 3178 3180 3183 3184 3186 3187 3188 3189 3190 3191 3191 3193 3194
3151 3150 3149 3149 3148 3148 3147 3147 3146 3145 3144 3143 3142 3142 3141 3140 3140 3139 3139 3138 3139 3138 3137 3137 3137 3137 3137 3137 3137 3137 3136 3136 3136 3137 3137 3137 3138 3138 3139 3139 3140 3142 3144 3145 3147 3149 3149 3150 3150 3151 3153 3154 3156 3157 3159 3160 3159 3159 3160 3160 3160 3160 3160 3161 3163 3165 3166 3166 3165 3167 3168 3170 3171 3173 3176 3178 3180 3182 3184 3185 3187 3188 3189 3190 3190 3191 3192 3194
3151 3150 3149 3149 3148 3148 3148 3147 3146 3145 3145 3144 3143 3142 3141 3141 3140 3140 3139 3139 3139 3139 3138 3138 3138 3138 3137 3138 3137 3137 3136 3136 3136 3137 3137 3137 3138 3138 3139 3139 3140 3141 3143 3146 3147 3148 3149 3149 3149 3151 3153 3155 3157 3158 3159 3159 3159 3159 3159 3160 3160 3161 3161 3162 3163 3164 3164 3165 3165 3167 3168 3169 3171 3173 3176 3178 3179 3181 3182 3184 3186 3188 3189 3190 3190 3191 3193 3194
3151 3150 3149 3149 3148 3148 3148 3147 3147 3146 3145 3145 3144 3143 3142 3141 3141 3141 3140 3140 3140 3139 3139 3139 3138 3138 3138 3138 3137 3137 3137 3136 3136 3137 3138 3138 3138 3139 3139 3140 3140 3142 3144 3145 3146 3147 3148 3146 3148 3151 3154 3155 3157 3158 3158 3159 3159 3159 3159 3159 3160 3160 3161 3162 3163 3163 3164 3165 3165 3166 3168 3169 3171 3173 3175 3177 3178 3180 3182 3184 3186 3187 3188 3189 3190 3191 3193 3194
3150 3150 3149 3149 3149 3148 3148 3148 3147 3147 3146 3145 3145 3143 3143 3142 3142 3142 3141 3141 3140 3140 3140 3139 3139 3138 3138 3138 3138 3137 3137 3137 3137 3138 3138 3138 3139 3139 3139 3140 3141 3142 3144 3145 3146 3146 3145 3145 3148 3152 3153 3155 3156 3157 3158 3158 3158 3158 3158 3159 3159 3160 3161 3161 3161 3162 3163 3165 3166 3166 3168 3170 3172 3173 3174 3176 3177 3179 3181 3184 3186 3187 3188 3189 3190 3191 3193 3193
3150 3150 3149 3149 3149 3149 3148 3148 3148 3147 3147 3146 3145 3144 3143 3143 3143 3143 3142 3141 3141 3141 3140 3139 3139 3139 3138 3138 3138 3138 3138 3138 3138 3138 3138 3138 3139 3139 3140 3141 3141 3142 3143 3144 3145 3145 3143 3145 3149 3151 3152 3154 3155 3156 3157 3157 3157 3157 3157 3158 3158 3159 3160 3160 3160 3161 3162 3164 3165 3167 3169 3170 3172 3173 3174 3175 3177 3178 3180 3183 3185 3187 3188 3189 3190 3192 3192 3193
3150 3150 3149 3149 3149 3149 3148 3148 3148 3147 3147 3146 3146 3145 3145 3144 3144 3143 3143 3142 3142 3141 3140 3139 3139 3139 3139 3138 3138 3138 3138 3138 3138 3139 3139 3139 3139 3140 3140 3141 3141 3142 3144 3145 3145 3144 3144 3146 3148 3150 3151 3152 3153 3154 3155 3156 3156 3156 3156 3156 3158 3159 3159 3159 3160 3161 3163 3163 3164 3166 3168 3169 3170 3172 3173 3174 3176 3178 3179 3181 3183 3185 3187 3189 3190 3191 3192 3193
3150 3149 3149 3149 3149 3149 3148 3148 3148 3147 3147 3147 3146 3146 3145 3145 3145 3144 3143 3143 3142 3141 3140 3139 3139 3139 3139 3139 3139 3138 3139 3139 3139 3139 3139 3139 3139 3140 3140 3141 3141 3142 3144 3145 3145 3144 3144 3146 3148 3149 3150 3151 3151 3152 3153 3154 3155 3155 3154 3155 3158 3159 3159 3159 3159 3160 3161 3160 3161 3164 3166 3167 3169 3170 3172 3174 3175 3177 3178 3179 3182 3184 3186 3188 3189 3191 3191 3192
3150 3149 3149 3149 3149 3149 3148 3148 3148 3147 3147 3147 3147 3146 3146 3145 3145 3145 3144 3143 3142 3141 3141 3140 3140 3139 3139 3139 3139 3139 3139 3139 3139 3139 3139 3139 3140 3140 3141 3141 3141 3142 3144 3145 3144 3143 3143 3145 3147 3148 3149 3150 3150 3149 3151 3153 3154 3153 3153 3155 3157 3158 3158 3158 3158 3159 3159 3159 3161 3162 3164 3166 3167 3168 3170 3172 3174 3175 3176 3178 3180 3182 3185 3187 3189 3190 3191 3191
3150 3149 3149 3149 3149 3149 3149 3148 3148 3148 3148 3148 3147 3147 3146 3145 3145 3144 3144 3144 3143 3142 3141 3141 3140 3139 3139 3139 3139 3139 3139 3139 3139 3139 3140 3140 3140 3140 3141 3142 3142 3142 3143 3144 3142 3141 3143 3144 3145 3147 3148 3148 3147 3148 3150 3153 3153 3152 3153 3156 3157 3158 3158 3158 3158 3158 3159 3160 3161 3161 3163 3165 3165 3166 3169 3171 3171 3172 3174 3176 3178 3180 3183 3186 3188 3189 3190 3191
3150 3149 3149 3149 3149 3149 3149 3149 3148 3148 3148 3148 3147 3147 3146 3145 3145 3144 3144 3144 3143 3142 3141 3141 3141 3140 3140 3139 3139 3140 3140 3139 3139 3140 3140 3140 3140 3140 3141 3142 3142 3142 3143 3143 3141 3140 3142 3142 3144 3145 3145 3145 3146 3148 3150 3152 3152 3152 3153 3155 3156 3156 3156 3157 3158 3159 3160 3161 3160 3160 3161 3163 3163 3163 3165 3166 3166 3168 3171 3174 3176 3178 3182 3184 3186 3188 3189 3191
3149 3149 3149 3149 3149 3149 3149 3149 3148 3148 3148 3148 3148 3147 3147 3146 3145 3144 3145 3145 3142 3142 3142 3141 3141 3141 3141 3140 3139 3139 3140 3140 3140 3140 3140 3140 3140 3140 3140 3141 3141 3142 3142 3142 3140 3140 3140 3141 3142 3142 3142 3143 3145 3147 3149 3150 3151 3151 3152 3153 3154 3156 3157 3159 3160 3160 3162 3161 3159 3159 3160 3161 3161 3160 3160 3161 3162 3166 3170 3172 3174 3177 3181 3183 3185 3187 3188 3189
3149 3148 3148 3148 3148 3149 3149 3149 3149 3148 3148 3148 3148 3148 3147 3147 3145 3145 3145 3144 3143 3142 3142 3141 3141 3141 3141 3140 3140 3139 3139 3139 3139 3139 3139 3140 3140 3140 3140 3140 3141 3141 3142 3141 3140 3140 3140 3140 3140 3140 3141 3143 3144 3145 3147 3148 3148 3149 3151 3152 3153 3156 3158 3160 3161 3162 3162 3161 3159 3159 3160 3162 3160 3156 3157 3159 3162 3167 3169 3170 3172 3175 3178 3181 3184 3186 3187 3189
3148 3148 3148 3148 3148 3149 3149 3149 3148 3148 3148 3148 3148 3148 3147 3146 3146 3145 3145 3144 3143 3142 3141 3141 3141 3141 3141 3140 3140 3139 3139 3139 3139 3139 3139 3139 3139 3139 3139 3140 3141 3141 3141 3140 3140 3140 3138 3138 3139 3139 3140 3141 3141 3143 3145 3146 3147 3148 3150 3151 3153 3158 3161 3161 3161 3161 3161 3159 3158 3158 3160 3161 3157 3154 3156 3158 3161 3165 3167 3169 3172 3174 3176 3179 3182 3184 3186 3188
3148 3147 3147 3148 3148 3148 3149 3149 3148 3148 3148 3148 3148 3147 3146 3146 3146 3145 3144 3144 3143 3142 3141 3140 3139 3140 3140 3140 3139 3139 3139 3139 3139 3138 3139 3139 3138 3139 3139 3140 3141 3141 3141 3140 3140 3139 3137 3137 3137 3137 3138 3138 3139 3140 3142 3144 3146 3147 3148 3149 3151 3156 3162 3163 3162 3160 3159 3157 3157 3157 3159 3158 3154 3153 3155 3156 3159 3163 3166 3169 3171 3173 3176 3178 3181 3183 3185 3186
3147 3147 3147 3147 3148 3148 3149 3149 3148 3148 3148 3148 3148 3147 3146 3146 3145 3145 3144 3143 3143 3141 3141 3140 3139 3139 3140 3140 3140 3140 3139 3139 3139 3138 3138 3138 3138 3138 3139 3139 3140 3140 3140 3140 3139 3139 3138 3137 3136 3136 3136 3136 3137 3138 3140 3142 3145 3146 3147 3148 3149 3151 3155 3157 3157 3156 3155 3155 3156 3157 3157 3155 3151 3151 3152 3154 3157 3160 3163 3167 3169 3172 3174 3177 3179 3181 3183 3185
3146 3146 3146 3147 3147 3148 3149 3149 3148 3149 3148 3148 3148 3147 3147 3146 3146 3145 3144 3143 3143 3141 3141 3141 3140 3139 3140 3140 3141 3140 3139 3139 3138 3138 3138 3138 3138 3138 3139 3139 3139 3139 3139 3139 3139 3138 3138 3137 3136 3136 3135 3135 3136 3138 3140 3141 3143 3145 3146 3148 3149 3148 3149 3151 3151 3151 3152 3154 3155 3155 3153 3150 3149 3150 3150 3152 3154 3157 3160 3163 3166 3169 3171 3174 3177 3179 3181 3183
3145 3145 3146 3146 3147 3148 3148 3148 3148 3148 3148 3148 3147 3147 3147 3146 3146 3145 3144 3143 3143 3141 3141 3141 3140 3140 3140 3140 3140 3140 3139 3139 3138 3138 3138 3138 3138 3139 3139 3139 3139 3139 3139 3139 3139 3138 3138 3136 3136 3136 3134 3135 3136 3137 3138 3139 3141 3144 3146 3147 3148 3148 3149 3149 3150 3151 3151 3153 3153 3151 3149 3148 3149 3149 3149 3150 3151 3153 3157 3159 3162 3165 3168 3170 3173 3176 3179 3181
3145 3145 3145 3146 3147 3148 3148 3148 3148 3148 3148 3147 3147 3147 3147 3146 3145 3145 3144 3143 3143 3142 3141 3141 3140 3140 3140 3140 3139 3139 3139 3139 3138 3138 3138 3138 3138 3139 3138 3138 3138 3138 3138 3139 3139 3139 3138 3135 3134 3134 3134 3134 3136 3137 3139 3140 3140 3142 3143 3145 3147 3148 3149 3148 3150 3152 3153 3153 3152 3149 3148 3147 3147 3147 3147 3148 3149 3150 3153 3155 3158 3162 3164 3167 3170 3173 3176 3179
3144 3145 3145 3146 3147 3147 3148 3148 3148 3148 3148 3147 3147 3147 3147 3146 3145 3144 3144 3143 3143 3142 3142 3141 3141 3140 3140 3140 3139 3139 3139 3139 3138 3138 3137 3137 3138 3138 3138 3138 3138 3138 3138 3139 3139 3139 3138 3135 3134 3134 3134 3135 3136 3138 3140 3139 3140 3141 3142 3144 3146 3147 3147 3147 3148 3150 3151 3152 3150 3147 3147 3146 3145 3144 3144 3145 3146 3147 3149 3152 3154 3157 3160 3163 3167 3171 3174 3177
3144 3144 3145 3145 3146 3147 3147 3148 3147 3147 3147 3147 3147 3147 3147 3146 3145 3144 3143 3143 3143 3143 3142 3141 3141 3140 3140 3140 3140 3139 3139 3139 3138 3137 3137 3137 3138 3139 3139 3138 3138 3138 3139 3139 3138 3138 3138 3137 3135 3133 3133 3134 3135 3137 3138 3138 3139 3141 3142 3144 3145 3145 3145 3145 3146 3145 3146 3149 3148 3147 3146 3144 3142 3142 3143 3144 3145 3146 3147 3149 3150 3153 3157 3160 3165 3169 3172 3175
3144 3144 3144 3145 3145 3146 3146 3147 3147 3147 3147 3147 3147 3147 3147 3146 3145 3144 3143 3143 3143 3143 3142 3141 3141 3141 3141 3140 3140 3139 3139 3139 3138 3138 3138 3138 3139 3139 3139 3139 3139 3138 3138 3139 3139 3138 3138 3138 3136 3134 3132 3133 3134 3135 3136 3136 3137 3139 3141 3142 3143 3144 3144 3144 3144 3143 3143 3145 3147 3147 3145 3141 3140 3141 3142 3143 3144 3144 3146 3147 3148 3151 3154 3159 3163 3168 3171 3174
3144 3144 3144 3145 3145 3146 3146 3146 3147 3147 3147 3147 3147 3146 3146 3145 3145 3144 3143 3143 3143 3143 3142 3142 3141 3141 3141 3140 3140 3139 3139 3139 3139 3139 3139 3139 3139 3140 3140 3139 3139 3138 3137 3138 3139 3139 3139 3138 3137 3135 3133 3133 3133 3134 3135 3136 3137 3138 3140 3141 3141 3142 3143 3143 3143 3143 3143 3143 3144 3145 3143 3140 3139 3140 3141 3142 3143 3143 3144 3145 3146 3148 3152 3157 3162 3166 3170 3173
3144 3144 3145 3145 3145 3146 3146 3146 3146 3146 3147 3147 3146 3146 3145 3144 3144 3143 3143 3143 3143 3143 3142 3142 3141 3141 3141 3140 3140 3140 3140 3139 3139 3139 3139 3140 3140 3140 3140 3140 3140 3139 3137 3137 3139 3139 3139 3139 3137 3135 3134 3134 3134 3134 3135 3137 3138 3139 3140 3140 3141 3141 3142 3142 3142 3141 3142 3142 3142 3142 3141 3139 3140 3140 3140 3141 3142 3143 3143 3143 3143 3146 3150 3155 3161 3165 3169 3172
3144 3144 3144 3145 3145 3145 3146 3145 3146 3146 3146 3146 3145 3145 3144 3144 3143 3142 3143 3143 3143 3142 3142 3141 3141 3141 3141 3140 3140 3140 3140 3140 3140 3139 3140 3140 3140 3140 3141 3140 3140 3140 3138 3137 3138 3139 3140 3140 3138 3133 3132 3132 3132 3133 3134 3135 3136 3138 3139 3139 3140 3141 3141 3141 3141 3141 3141 3140 3141 3141 3140 3140 3140 3140 3140 3141 3142 3142 3142 3140 3140 3144 3149 3155 3160 3165 3168 3171
3144 3144 3144 3144 3144 3145 3145 3145 3145 3145 3144 3144 3144 3143 3143 3143 3142 3142 3142 3142 3142 3142 3141 3141 3141 3141 3141 3140 3140 3140 3140 3140 3140 3140 3140 3140 3140 3140 3140 3140 3140 3140 3139 3138 3138 3139 3139 3140 3138 3134 3133 3134 3133 3133 3133 3134 3135 3137 3138 3138 3138 3140 3140 3140 3141 3141 3140 3139 3140 3140 3140 3139 3140 3140 3141 3141 3142 3143 3143 3141 3141 3144 3149 3155 3160 3165 3168 3170
3143 3143 3143 3143 3143 3144 3144 3144 3144 3143 3143 3143 3143 3143 3142 3142 3142 3142 3142 3141 3141 3140 3140 3140 3140 3140 3140 3140 3140 3140 3140 3140 3141 3141 3141 3141 3141 3141 3140 3140 3141 3140 3139 3139 3139 3139 3139 3139 3139 3138 3139 3139 3138 3136 3134 3134 3135 3137 3137 3136 3136 3137 3138 3139 3140 3140 3138 3138 3139 3140 3139 3140 3141 3141 3141 3142 3143 3144 3145 3144 3145 3148 3152 3157 3162 3165 3167 3169
3143 3143 3143 3143 3143 3143 3143 3143 3143 3143 3143 3143 3142 3142 3142 3141 3141 3141 3141 3140 3140 3140 3140 3140 3140 3140 3140 3140 3140 3140 3140 3140 3141 3141 3141 3141 3141 3141 3141 3142 3142 3141 3139 3138 3139 3139 3138 3140 3143 3142 3141 3140 3138 3136 3135 3134 3135 3137 3136 3135 3134 3135 3136 3137 3138 3138 3137 3138 3139 3140 3140 3140 3141 3142 3143 3143 3144 3146 3147 3148 3149 3151 3155 3159 3162 3165 3166 3168
3141 3142 3142 3142 3142 3142 3143 3143 3142 3143 3143 3143 3142 3141 3141 3141 3141 3140 3140 3140 3140 3140 3140 3139 3139 3139 3139 3139 3140 3140 3140 3140 3140 3141 3141 3141 3141 3141 3141 3142 3142 3142 3140 3138 3139 3140 3138 3142 3145 3143 3141 3139 3137 3136 3135 3134 3134 3136 3136 3133 3132 3132 3133 3134 3135 3136 3137 3137 3138 3139 3140 3140 3142 3143 3144 3145 3147 3148 3149 3150 3151 3153 3156 3158 3161 3163 3165 3167
3139 3140 3141 3141 3141 3141 3142 3142 3142 3142 3143 3143 3142 3141 3141 3140 3140 3139 3139 3139 3139 3139 3139 3139 3139 3139 3138 3139 3139 3139 3140 3140 3140 3140 3140 3140 3141 3141 3142 3141 3141 3142 3141 3139 3140 3140 3139 3143 3145 3143 3141 3140 3138 3137 3136 3134 3134 3134 3133 3132 3131 3131 3131 3132 3133 3134 3135 3136 3136 3138 3140 3140 3142 3143 3145 3146 3148 3149 3150 3151 3152 3154 3156 3158 3160 3161 3162 3164
3137 3138 3139 3140 3140 3140 3141 3141 3141 3141 3142 3142 3141 3140 3140 3140 3139 3139 3139 3139 3139 3138 3138 3138 3139 3139 3139 3139 3139 3139 3139 3139 3139 3139 3139 3140 3140 3140 3141 3141 3141 3142 3142 3140 3139 3139 3141 3144 3145 3142 3142 3141 3139 3138 3136 3134 3134 3134 3132 3132 3131 3131 3131 3131 3131 3133 3134 3135 3136 3138 3139 3140 3142 3144 3145 3147 3148 3149 3150 3152 3153 3154 3155 3157 3158 3160 3161 3161
3135 3135 3136 3137 3138 3139 3139 3140 3140 3141 3141 3140 3139 3139 3138 3138 3139 3139 3138 3138 3138 3138 3137 3137 3138 3138 3138 3139 3139 3139 3139 3139 3139 3139 3139 3140 3140 3140 3141 3141 3141 3141 3141 3140 3139 3139 3141 3144 3144 3143 3142 3141 3140 3139 3137 3136 3136 3135 3134 3133 3133 3132 3132 3131 3131 3133 3134 3135 3137 3138 3139 3140 3143 3145 3146 3147 3148 3149 3150 3151 3152 3153 3154 3155 3157 3158 3159 3159
3133 3133 3134 3134 3136 3137 3138 3138 3138 3139 3139 3138 3137 3137 3137 3137 3137 3138 3138 3138 3138 3137 3137 3137 3137 3138 3138 3138 3139 3139 3139 3139 3139 3139 3140 3140 3140 3140 3140 3141 3140 3140 3140 3140 3140 3139 3140 3142 3144 3143 3142 3141 3140 3139 3138 3138 3137 3136 3135 3136 3135 3135 3135 3135 3134 3135 3136 3137 3138 3139 3139 3142 3144 3146 3147 3148 3149 3149 3150 3151 3151 3152 3153 3154 3155 3156 3156 3156
3131 3131 3131 3132 3133 3134 3136 3136 3137 3137 3137 3137 3136 3136 3137 3137 3137 3137 3137 3137 3137 3137 3137 3137 3137 3138 3138 3138 3138 3138 3139 3139 3139 3139 3140 3140 3140 3140 3140 3140 3140 3140 3140 3140 3140 3139 3139 3140 3143 3143 3142 3142 3141 3140 3139 3138 3139 3139 3139 3139 3139 3139 3139 3138 3138 3138 3139 3140 3140 3140 3141 3143 3146 3147 3148 3149 3149 3150 3150 3150 3150 3151 3152 3153 3154 3155 3155 3154